www.pogodaiklimat.ru

Погода и климат >> Архив погоды >> Индия >> Bhuj-Rudramata


ПОГОДА в Bhuj-Rudramata

  • Прогноз погоды в Bhuj-Rudramata
  • Монитор погоды в Bhuj-Rudramata
  • Климат города

АРХИВ ПОГОДЫ в Bhuj-Rudramata

Время (UTC), дата Ветер
(напр.,м/с)
 
Видим.   Явления Облачность Т
(С)
Тd
(С)
f
(%)
Тe
(С)
Тes
(С)
Комфортность P
(гПа)
Po
(гПа)
Тmin
(С)
Tmax
(С)
R
(мм)
R24
(мм)
S
(см)
00 10.08 штиль 0 4000 м 9/5 360 м
[Frnb Ac trans]
+26.4 +24.7 90 +37 +37 очень
душно
1001.8 1002.0
03 10.08 штиль 0 4000 м 5/5 600 м
[Sc]
+27.8 +24.9 84 +40 +43 очень
душно
1003.7 1004.0 +24.8
06 10.08 ЮЗ 2 4000 м 8/8 600 м
[Cu Sc]
+31.0 +24.4 68 +43 +47 опасность
перегрева
1003.3 1003.0
09 10.08 ЮЗ 3 4000 м 8/8 600 м
[Cu Sc]
+31.8 +23.4 61 +43 +46 опасность
перегрева
1002.2 1002.0
12 10.08 ЮЗ 3 4000 м 8/8 600 м
[Cu Sc]
+31.0 +22.5 61 +41 +41 опасность
перегрева
1001.5 1002.0 +32.4
15 10.08 ЮЗ 3 4000 м 6/6 600 м
[Sc]
+28.0 +23.7 77 +38 +38 очень
душно
1002.7 1003.0
18 10.08 ЮЗ 2 4000 м 5/5 600 м
[Sc]
+24.1 +24.2 100 +33 +33 очень
душно
1003.5 1004.0
21 10.08 ЮЗ 3 4000 м 5/5 600 м
[Sc]
+27.0 +24.4 86 +38 +38 очень
душно
1002.8 1003.0
00 11.08 штиль 0 4000 м в посл. час дождь {морось} 9/6 360 м
[Frnb Ac trans]
+25.8 +24.4 92 +36 +36 очень
душно
1002.2 1002.0 0.3
03 11.08 ЮЗ 2 4000 м 9/6 360 м
[Frnb Ac trans]
+26.6 +24.6 89 +38 +39 очень
душно
1003.8 1004.0 +24.7 0.3
06 11.08 ЮЗ 3 4000 м {морось} 8/4 360 м
[Frnb Ac trans]
+29.0 +23.2 71 +39 +45 очень
душно
1004.0 1004.0 0.4
09 11.08 З 7 4000 м 8/8 600 м
[Cu Sc]
+30.6 +22.4 62 +40 +41 очень
душно
1002.7 1003.0 0.4
12 11.08 З 3 4000 м 8/5 360 м
[Frnb Ac trans]
+29.0 +23.2 71 +39 +40 очень
душно
1002.1 1002.0 +31.5 0.4
15 11.08 З 2 4000 м 8/5 600 м
[Sc Ac trans]
+27.0 +24.1 84 +37 +37 очень
душно
1003.0 1003.0 0.4
18 11.08 З 2 4000 м слабый дождь {морось} 9/6 450 м
[Frnb Ac trans]
+25.8 +24.4 92 +36 +36 очень
душно
1003.8 1004.0 0.7
21 11.08 З 2 4000 м в посл. час дождь {морось} 9/6 450 м
[Frnb Ac trans]
+25.4 +24.2 93 +35 +35 очень
душно
1002.6 1003.0 2
00 12.08 З 2 4000 м {дождь, морось} 9/6 450 м
[Frnb Ac trans]
+25.4 +24.2 93 +35 +35 очень
душно
1002.0 1002.0 3
03 12.08 З 3 4000 м слабая морось {дождь} 10/6 360 м
[Frnb Ac trans]
+25.8 +24.4 92 +36 +37 очень
душно
1003.4 1003.0 +24.0 4
06 12.08 З 4 4000 м 9/6 360 м
[Frnb Ac trans]
+28.4 +23.8 76 +39 +42 очень
душно
1003.8 1004.0
09 12.08 З 7 4000 м {морось} 8/5 600 м
[Cu Sc Ac trans]
+30.0 +23.7 69 +41 +43 опасность
перегрева
1002.4 1002.0 0.2
12 12.08 З 5 4000 м {дождь} 9/6 360 м
[St Ac trans]
+28.0 +24.6 82 +40 +40 очень
душно
1001.7 1002.0 +31.0 0.4
15 12.08 ЮЗ 3 4000 м слабая морось {дождь} 9/6 360 м
[St Ac trans]
+26.4 +24.4 89 +37 +37 очень
душно
1002.7 1003.0 0.8
18 12.08 ЮЗ 4 4000 м 9/5 600 м
[Sc Ac trans]
+26.6 +24.3 87 +37 +37 очень
душно
1003.6 1004.0 0.8
21 12.08 ЮЗ 3 4000 м 9/5 600 м
[Sc Ac trans]
+25.8 +24.4 92 +36 +36 очень
душно
1002.4 1002.0 0.8
00 13.08 ЮЗ 2 4000 м 9/5 600 м
[Sc]
+25.8 +24.4 92 +36 +36 очень
душно
1002.1 1002.0 0.8
03 13.08 З 3 4000 м 9/5 600 м
[Sc Ac trans]
+27.2 +24.0 83 +38 +39 очень
душно
1002.9 1003.0 +25.3 0.8
06 13.08 З 5 4000 м 8/5 600 м
[Sc Ac trans]
+30.4 +23.8 68 +42 +45 опасность
перегрева
1003.8 1004.0
09 13.08 ЮЗ 5 4000 м 9/6 600 м
[Cu Sc Ac trans]
+30.6 +23.0 64 +41 +43 опасность
перегрева
1003.5 1004.0
12 13.08 З 5 4000 м 9/6 540 м
[Cu Sc Ac trans]
+29.6 +22.6 66 +39 +39 очень
душно
1003.0 1003.0 +31.8
15 13.08 З 3 4000 м 5/5 600 м
[Sc]
+28.0 +23.7 77 +38 +38 очень
душно
1003.7 1004.0
18 13.08 З 3 4000 м 6/5 360 м
[Frnb Ac trans]
+27.2 +24.3 84 +38 +38 очень
душно
1004.5 1005.0
21 13.08 З 2 4000 м 5/5 600 м
[Sc]
+26.8 +24.2 86 +37 +37 очень
душно
1003.6 1004.0
00 14.08 З 3 4000 м 8/6 360 м
[Frnb Ac trans]
+26.8 +24.2 86 +37 +37 очень
душно
1004.5 1005.0
03 14.08 З 2 4000 м 9/6 360 м
[St Ac trans]
+27.6 +23.8 80 +38 +39 очень
душно
1006.1 1006.0 +25.9
06 14.08 ЮЗ 3 4000 м 8/5 360 м
[St Ac trans]
+30.8 +23.3 64 +41 +46 опасность
перегрева
1006.7 1007.0
09 14.08 З 3 4000 м 8/5 360 м
[St Ac trans]
+31.4 +22.7 60 +41 +46 опасность
перегрева
1006.2 1006.0
12 14.08 З 4 4000 м 8/8 600 м
[Cu Sc]
+31.4 +22.3 59 +41 +41 опасность
перегрева
1005.4 1005.0 +32.5
15 14.08 З 3 4000 м 8/8 600 м
[Cu Sc]
+28.2 +23.6 76 +38 +38 очень
душно
1006.3 1006.0
18 14.08 ЮЗ 2 4000 м 8/5 600 м
[Sc Ac trans]
+27.2 +24.0 83 +38 +38 очень
душно
1007.4 1007.0
21 14.08 ЮЗ 3 4000 м 8/5 600 м
[Sc Ac trans]
+26.4 +23.8 86 +36 +36 очень
душно
1006.4 1006.0
00 15.08 нст 1 4000 м 8/5 600 м
[Sc Ac trans]
+26.6 +24.3 87 +37 +37 очень
душно
1006.8 1007.0
03 15.08 штиль 0 4000 м 8/8 600 м
[Cu Sc]
+27.2 +24.0 83 +38 +39 очень
душно
1007.9 1008.0 +25.2
06 15.08 З 3 4000 м 8/8 600 м
[Cu Sc]
+31.4 +22.3 59 +41 +44 опасность
перегрева
1007.7 1008.0
09 15.08 З 3 4000 м 8/8 600 м
[Cu Sc]
+32.6 +22.4 55 +42 +45 опасность
перегрева
1006.2 1006.0
12 15.08 З 3 4000 м 5/5 600 м
[Sc]
+32.4 +21.5 53 +41 +42 опасность
перегрева
1004.6 1005.0 +33.8
15 15.08 ЮЗ 3 4000 м 5/5 600 м
[Sc]
+28.6 +23.4 73 +39 +39 очень
душно
1006.0 1006.0
18 15.08 ЮЗ 3 4000 м 5/5 600 м
[Sc]
+27.2 +24.0 83 +38 +38 очень
душно
1006.8 1007.0
21 15.08 ЮЗ 3 4000 м 5/5 600 м
[Sc]
+26.4 +24.1 87 +37 +37 очень
душно
1005.9 1006.0
00 16.08 нст 1 4000 м 8/5 360 м
[St Ac trans]
+26.2 +23.9 87 +36 +36 очень
душно
1005.4 1005.0
03 16.08 З 2 4000 м 6/6 600 м
[Cu Sc]
+28.0 +23.9 78 +39 +40 очень
душно
1006.4 1006.0 +25.2
06 16.08 З 2 4000 м 6/6 600 м
[Cu Sc]
+30.6 +22.7 63 +40 +48 очень
душно
1006.8 1007.0
09 16.08 З 5 4000 м 6/6 600 м
[Cu Sc]
+33.4 +21.3 49 +41 +45 опасность
перегрева
1004.5 1005.0
12 16.08 ЮЗ 4 4000 м 6/6 600 м
[Cu Sc]
+31.8 +22.5 58 +41 +42 опасность
перегрева
1003.5 1004.0 +34.0
15 16.08 ЮЗ 3 4000 м 8/8 600 м
[Cu Sc]
+28.4 +23.5 75 +39 +39 очень
душно
1004.2 1004.0
18 16.08 ЮЗ 2 4000 м 5/5 600 м
[Sc]
+27.2 +24.0 83 +38 +38 очень
душно
1005.8 1006.0
21 16.08 ЮЗ 2 4000 м 5/5 600 м
[Sc]
+26.4 +24.1 87 +37 +37 очень
душно
1004.9 1005.0

 

Местоположение метеостанции Bhuj-Rudramata (Gujarat, Индия): широта 23.25 долгота 69.67 высота над уровнем моря 80 м.

В архиве по умолчанию представлена погода в Bhuj-Rudramata за последнюю неделю. Архивные данные за месяц целиком и за предыдущие месяцы, начиная с января 2011 года, Вы можете получить, выбрав интересующий диапазон дат из раскрывающегося списка и нажав кнопку "Ввод!".

Внимание! Время в таблицах - всемирное. Для получения местного времени необходимо прибавить поправку, которая в Bhuj-Rudramata равна 5.5 ч.

Смотрите также архив погоды в соседних городах и на ближайших метеорологических станциях:

Погода в Kandla (Gujarat, Индия) (47 км)
Погода в New Kandla (Gujarat, Индия) (63 км)
Погода в Mandvi (Gujarat, Индия) (63 км)
Погода в Naliya (Gujarat, Индия) (84 км)
Погода в Okha (Gujarat, Индия) (103 км)
Погода в Dwarka (Gujarat, Индия) (115 км)
Погода в Rajkot (Gujarat, Индия) (155 км)
Погода в Badin (Пакистан) (172 км)
Погода в Porbandar (Gujarat, Индия) (178 км)
Погода в Surendranagar (Gujarat, Индия) (206 км)

Пояснения к столбцам:

Ветер - указаны скорость ветра в м/с - средняя за 10 мин, порывы в срок и между сроками (в фигурных скобках) и направление, откуда дует ветер: С - северный, СВ - северо-восточный, В - восточный, ЮВ - юго-восточный, Ю - южный, ЮЗ - юго-западный, З - западный, СЗ - северо-западный.
Видимость - горизонтальная дальность видимости в метрах или километрах. При видимости от 1 до 10 км при отсутствии осадков обычно наблюдается дымка, при ухудшении видимости до 1 км и менее - туман. В сухую погоду видимость может ухудшаться дымом, пылью или мглою.
Явления - указаны атмосферные явления, наблюдавшиеся в срок или в последний час перед сроком; фигурными скобками обозначены явления, наблюдавшиеся между сроками (за 1-3 часа до срока); квадратными скобками обозначены град или гололедные отложения с указанием их диаметра в мм.
Облачность - указаны через наклонную черту общая и нижняя облачность в баллах и высота нижней границы облаков в метрах; квадратными скобками обозначены формы облаков: Ci - перистые, Cs - перисто-слоистые, Cc - перисто-кучевые, Ac - высококучевые, As - высокослоистые, Sc - слоисто-кучевые, Ns - слоисто-дождевые, Cu - кучевые, Cb - кучево-дождевые. Подробнее классификацию облаков см. в Атласе облаков (PDF).
T - Температура воздуха - температура, измеренная на высоте 2 м над землей.
Td - Температура точки росы - температура, при понижении до которой содержащийся в воздухе водяной пар достигнет насыщения.
f - Относительная влажность воздуха - влажноcть воздуха, измеренная на высоте 2 м над землей.
Te - Эффективная температура - температура, которую ощущает одетый по сезону человек в тени. Характеристика душности погоды. При расчете учитывается влияние влажности воздуха и скорости ветра на теплоощущения человека.
Tes - Эффективная температура на солнце - температура, которую ощущает человек, с поправкой на солнечный нагрев. Характеристика знойности погоды. Зависит от высоты солнца над горизонтом, облачности и скорости ветра. Ночью, в пасмурную погоду, а также при ветре 12 м/с и более поправка равна нулю.
P - Атмосферное давление - приведенное к уровню моря атмосферное давление.
Po - Атмосферное давление - измеренное на уровне метеостанции атмосферное давление.
Tmin - Минимальная температура - минимум температуры воздуха на высоте 2 м над землей.
Tmax - Максимальная температура - максимум температуры воздуха на высоте 2 м над землей.
R - Количество осадков - Количество выпавших осадков за период времени, мм. При наведении курсора мыши на число - период времени, за который выпало указанное количество осадков.
R24 - Количество осадков - Количество выпавших осадков за 24 часа, мм.
S - Снежный покров - Высота снежного покрова, см. При наведении курсора мыши на число - состояние снежного покрова и степень покрытия местности в баллах.